Penn Yan, NY

9:19 AM EST on December 11, 2017 (GMT -0500)
Penn Yan

Weather History for KPEO - November, 2013

Change the Weather History Date:

Saturday, November 2, 2013

  Actual Average (KITH) Record (KITH)
Temperature  
Mean Temperature 45 °F -  
Max Temperature 53 °F 55 °F 81 °F (1950)
Min Temperature 37 °F 38 °F 19 °F (1965)
Degree Days  
Heating Degree Days 20    
Moisture  
Dew Point 41 °F    
Average Humidity 85    
Maximum Humidity 93    
Minimum Humidity 59    
Precipitation  
Precipitation 0.10 in - - ()
Sea Level Pressure  
Sea Level Pressure 29.76 in    
Wind  
Wind Speed 4 mph (NW)    
Max Wind Speed 13 mph    
Max Gust Speed 23 mph    
Visibility 8 miles    
Events Rain    
Averages and records for this station are not official NWS values.
T = Trace of Precipitation, MM = Missing Value Source: NWS Daily Summary

Daily Weather History Graph

Daily Weather History Graph

Search for Another Location

Airport or City:

Trip Planner

Search our weather history database for the weather conditions in past years. The results will help you decide how hot, cold, wet, or windy it might be!

Date:

Astronomy

Nov. 02, 2013 Rise Set
Actual Time 7:43 AM EDT 5:59 PM EDT
Civil Twilight 7:14 AM EDT 6:28 PM EDT
Nautical Twilight 6:40 AM EDT 7:02 PM EDT
Astronomical Twilight 6:07 AM EDT 7:34 PM EDT
Moon 6:37 AM EDT (11/2) 5:29 PM EDT (11/2)
Length of Visible Light 11h 14m
Length of Day
10h 15m
Waning Crescent, 1% of the Moon is Illuminated
Nov 2
Waning Crescent
Nov 3
New
Nov 10
First Quarter
Nov 17
Full
Nov 25
Last Quarter

Hourly Weather History & Observations

Time (EDT) Temp. Windchill Dew Point Humidity Pressure Visibility Wind Dir Wind Speed Gust Speed Precip Events Conditions
12:53 AM 50.0 °F - 41.0 °F 71% 29.66 in 10.0 mi Calm Calm - N/A   Overcast
1:53 AM 48.9 °F - 42.1 °F 77% 29.65 in 10.0 mi Calm Calm - N/A   Overcast
2:53 AM 48.0 °F - 43.0 °F 83% 29.65 in 10.0 mi Calm Calm - N/A   Overcast
3:53 AM 48.0 °F - 44.1 °F 86% 29.64 in 8.0 mi Calm Calm - 0.00 in Rain Light Rain
4:53 AM 46.9 °F - 44.1 °F 90% 29.64 in 8.0 mi Calm Calm - 0.00 in   Overcast
5:53 AM 48.0 °F - 45.0 °F 89% 29.65 in 8.0 mi Calm Calm - 0.00 in Rain Light Rain
6:53 AM 48.0 °F - 45.0 °F 89% 29.64 in 8.0 mi Calm Calm - 0.00 in   Overcast
7:53 AM 46.9 °F - 43.0 °F 86% 29.65 in 10.0 mi SSW 3.5 mph - N/A   Mostly Cloudy
8:53 AM 48.9 °F - 43.0 °F 80% 29.67 in 10.0 mi SSW 6.9 mph - N/A   Scattered Clouds
9:53 AM 52.0 °F - 42.1 °F 69% 29.67 in 10.0 mi SW 10.4 mph - N/A   Clear
10:53 AM 52.0 °F - 39.0 °F 61% 29.67 in 10.0 mi WSW 6.9 mph 17.3 mph N/A   Overcast
11:53 AM 53.1 °F - 39.0 °F 59% 29.67 in 10.0 mi WSW 6.9 mph - N/A   Overcast
12:53 PM 50.0 °F - 42.1 °F 74% 29.68 in 10.0 mi SSW 9.2 mph - 0.00 in Rain Light Rain
1:53 PM 48.9 °F - 44.1 °F 83% 29.68 in 9.0 mi SW 5.8 mph - 0.01 in Rain Light Rain
2:49 PM 48.2 °F - 42.8 °F 82% 29.68 in 6.0 mi West 9.2 mph - 0.03 in Rain Light Rain
2:53 PM 48.0 °F - 43.0 °F 83% 29.68 in 7.0 mi West 6.9 mph - 0.03 in Rain Light Rain
3:53 PM 48.9 °F - 43.0 °F 80% 29.70 in 10.0 mi West 4.6 mph - 0.01 in Rain Light Rain
4:23 PM 48.2 °F - 44.6 °F 87% 29.70 in 10.0 mi Calm Calm - 0.00 in   Overcast
4:53 PM 48.0 °F - 43.0 °F 83% 29.72 in 9.0 mi NW 6.9 mph - 0.01 in Rain Light Rain
5:53 PM 48.0 °F - 43.0 °F 83% 29.74 in 10.0 mi West 3.5 mph - 0.00 in Rain Light Rain
6:32 PM 46.4 °F 41.9 °F 42.8 °F 87% 29.76 in 7.0 mi North 9.2 mph 16.1 mph 0.00 in Rain Light Rain
6:39 PM 44.6 °F 38.8 °F 42.8 °F 93% 29.76 in 5.0 mi North 11.5 mph 23.0 mph 0.00 in Rain Light Rain
6:53 PM 44.1 °F 38.6 °F 41.0 °F 89% 29.79 in 5.0 mi North 10.4 mph 18.4 mph 0.01 in Rain Light Rain
7:26 PM 42.8 °F 37.0 °F 39.2 °F 87% 29.81 in 9.0 mi North 10.4 mph 17.3 mph 0.00 in Rain Light Rain
7:39 PM 42.8 °F 36.2 °F 39.2 °F 87% 29.82 in 7.0 mi NNW 12.7 mph 17.3 mph 0.01 in Rain Light Rain
7:53 PM 41.0 °F 35.2 °F 37.9 °F 89% 29.85 in 10.0 mi North 9.2 mph 17.3 mph 0.01 in Rain Light Rain
8:02 PM 41.0 °F 35.2 °F 37.4 °F 87% 29.84 in 9.0 mi NNW 9.2 mph 17.3 mph 0.00 in Rain Light Rain
8:53 PM 39.9 °F 35.1 °F 37.9 °F 93% 29.88 in 4.0 mi NNW 6.9 mph - 0.00 in Rain Light Rain
9:25 PM 39.2 °F 33.6 °F 37.4 °F 93% 29.89 in 7.0 mi North 8.1 mph - 0.00 in Rain Light Rain
9:53 PM 39.0 °F 34.8 °F 37.0 °F 93% 29.91 in 6.0 mi North 5.8 mph - 0.01 in Rain Light Rain
10:01 PM 39.2 °F 35.0 °F 37.4 °F 93% 29.91 in 7.0 mi Variable 5.8 mph - 0.00 in Rain Light Rain
10:53 PM 39.0 °F 32.3 °F 37.0 °F 93% 29.94 in 6.0 mi North 10.4 mph - 0.01 in Rain Light Rain
11:20 PM 37.4 °F 30.3 °F 35.6 °F 93% 29.93 in 7.0 mi North 10.4 mph 19.6 mph 0.00 in Rain Light Rain
11:50 PM 37.4 °F 31.4 °F 35.6 °F 93% 29.94 in 8.0 mi NNW 8.1 mph - 0.00 in Rain Light Rain
11:53 PM 37.9 °F 30.9 °F 36.0 °F 93% 29.96 in 8.0 mi NNW 10.4 mph - 0.00 in Rain Light Rain